Location: Pedholt
(56.0260°N, 10.2097°E)
Time: 00:22:54
(UTC+00:00)

A-11 Canister half - Pass Details

Date: 04 August 2021
Orbit: 1515 x 1685 km, 47.2° (Epoch: 19 September)

Event Time Altitude Azimuth Distance (km) Brightness Sun altitude
Rises 17:45:25 0° 252° (WSW) 4,812 12.7 11.3°
Reaches altitude 10° 17:48:34 10° 247° (WSW) 3,850 12.1 10.9°
Maximum altitude 17:57:59 52° 175° (S) 1,993 9.6 9.6°
Drops below altitude 10° 18:07:37 10° 104° (ESE) 3,946 10.5 8.3°
Sets 18:10:54 0° 100° (E) 4,940 11.0 7.9°
